Location: Gull Harbor
(47.1000°N, 122.9000°W)
Time: 07:24:57
(UTC-07:00)

N. Korean satellite - Visible Passes

Search period start: 23 March 2017 00:00
Search period end: 02 April 2017 00:00
Orbit: 461 x 520 km, 97.2° (Epoch: 21 March)

Date Brightness Start Highest point End Pass type
(mag) Time Alt. Az. Time Alt. Az. Time Alt. Az.
23 Mar 8.6 19:59:23 10° SSW 20:02:41 33° W 20:05:57 10° NNW visible
26 Mar 9.7 20:26:22 10° SW 20:28:46 17° W 20:31:11 10° NW visible
27 Mar 8.8 20:02:56 10° SSW 20:06:05 30° W 20:09:14 10° NNW visible
30 Mar 9.7 20:30:01 10° SW 20:32:10 15° W 20:34:19 10° NW visible
